Other Public Products
Issued by NWS Grand Forks, ND

Home | Current Version | Previous Version | Text Only | Print | Product List | Glossary On
Versions: 1 2 3 4 5 6 7 8 9 10 11 12 13 14 15 16 17 18 19 20 21 22 23 24 25 26 27 28 29 30 31 32 33 34 35 36 37 38 39 40 41 42 43 44 45 46 47 48 49 50
000
FPUS83 KFGF 280031
OPUFGF
PRAIRIE TO PINES WEATHER ROUNDUP
NATIONAL WEATHER SERVICE EASTERN NORTH DAKOTA/GRAND FORKS ND
700 PM CDT THU APR 27 2017

 **SATELLITE DATA USED TO AUGMENT SKY COVER AT AUTOMATED STATIONS**
 *****  WEATHER ACROSS EASTERN NORTH DAKOTA  *****

CITY           SKY/WX    TMP DP  RH WIND       PRES   REMARKS
GRAND FORKS    CLOUDY    43  33  68 NE12      29.69R
6HR MIN TEMP:  38; 6HR MAX TEMP:  47;

GRAND FORKS AF CLOUDY    43  31  62 NE15      29.69R
GRAND CITY NWS NOT AVBL
BUXTON           N/A     39  31  74 E5          N/A
DEVILS LAKE    PTSUNNY   46  27  47 N21       29.73R
6HR MIN TEMP:  42; 6HR MAX TEMP:  49;

FARGO          CLOUDY    41  30  65 NE5       29.69R
6HR MIN TEMP:  32; 6HR MAX TEMP:  42;

WAHPETON ARPT  CLOUDY    37  30  75 CALM      29.71S
$$

 *****  WEATHER ACROSS CENTRAL AND WESTERN NORTH DAKOTA  *****

CITY           SKY/WX    TMP DP  RH WIND       PRES   REMARKS
JAMESTOWN      PTSUNNY   48  31  51 N14       29.69R
6HR MIN TEMP:  43; 6HR MAX TEMP:  50;

BISMARCK       FAIR      53  26  35 NE9       29.73R
6HR MIN TEMP:  47; 6HR MAX TEMP:  54;

MINOT          FAIR      52  21  29 N14       29.75R
6HR MIN TEMP:  45; 6HR MAX TEMP:  53;

MINOT AFB      FAIR      50  19  29 N10       29.75R
6HR MIN TEMP:  44; 6HR MAX TEMP:  51;

GARRISON         N/A     50  17  27 NE8       29.74R
6HR MIN TEMP:  44; 6HR MAX TEMP:  51;

WILLISTON      FAIR      53  15  22 E12       29.76R
6HR MIN TEMP:  48; 6HR MAX TEMP:  55;

DICKINSON      FAIR      49  20  31 NE10      29.70R
6HR MIN TEMP:  41; 6HR MAX TEMP:  50;

HETTINGER      FAIR      50  26  39 E10       29.70R
6HR MIN TEMP:  40; 6HR MAX TEMP:  51;

$$

 *****  OTHER OBSERVATIONS NORTHEAST NORTH DAKOTA  *****

CITY           SKY/WX    TMP DP  RH WIND       PRES   REMARKS
WALHALLA       NOT AVBL
LANGDON        CLOUDY    43  27  52 N23G30    29.73R
CAVALIER       CLOUDY    43  28  56 N16G26    29.72R
GRAFTON        CLOUDY    41  30  65 N21G30    29.73R
CANDO          NOT AVBL
FORT TOTTEN      N/A     47  27  46 N7        29.95S
ROLLA          FAIR      43  27  52 N20       29.77R
RUGBY          NOT AVBL
 ***** THE ABOVE OBSERVATIONS ARE NON NWS ARE NOT QUALITY
        CONTROLLED AND MAY MIS-REPORT RAIN FOR SNOW...
$$

 *****  OTHER OBSERVATIONS SOUTHEAST NORTH DAKOTA *****

CITY           SKY/WX    TMP DP  RH WIND       PRES   REMARKS
COOPERSTOWN    CLOUDY    43  30  61 N17G23    29.71R
VALLEY CITY    CLOUDY    45  30  57 N13G20    29.72R
OAKES          NOT AVBL
GWINNER        CLOUDY    43  34  70 MISG      29.71R
SHEYENNE NWR     N/A     44  29  56 N9        29.95S
BUFFALO          N/A     43  26  51 S13         N/A
WYNDMERE         N/A     41  34  75 VRB3        N/A
 ***** THE ABOVE OBSERVATIONS ARE NON NWS ARE NOT QUALITY
       CONTROLLED AND MAY MIS-REPORT RAIN FOR SNOW...
$$

  *****  WEATHER ACROSS NORTHERN MINNESOTA  *****

CITY           SKY/WX    TMP DP  RH WIND       PRES   REMARKS
FLAG ISLAND    LGT SNOW  28  25  86 N20G31    29.64R WCI  15
WARROAD        LGT SNOW  30  27  86 N8        29.66R WCI  23
ROSEAU         CLOUDY    32  28  86 NW16      29.66S WCI  21
HALLOCK        CLOUDY    39  30  70 N23G31    29.70R
THF RVR FALLS  CLOUDY    32  25  74 NW7       29.69R
6HR MIN TEMP:  30; 6HR MAX TEMP:  32;

HALSTAD          N/A     37  27  65 N2          N/A
FOSSTON        CLOUDY    28  23  80 NW6       29.68R WCI  22
BAUDETTE       CLOUDY    28  21  75 N13       29.62R WCI  17
6HR MIN TEMP:  27; 6HR MAX TEMP:  29; 6HR PCP: TRACE;

WASKISH        MIX PCPN  28  23  80 NW6       29.63R WCI  22
CROOKSTON      CLOUDY    36  27  69 E5        29.71R
$$
  *****  WEATHER ACROSS CENTRAL AND WEST MINNESOTA  *****

CITY           SKY/WX    TMP DP  RH WIND       PRES   REMARKS
BEMIDJI        CLOUDY    29  21  73 NW13      29.63R WCI  19
PARK RAPIDS    CLOUDY    31  20  63 NW15      29.64R WCI  20
6HR MIN TEMP:  28; 6HR MAX TEMP:  32;

WADENA         CLOUDY    30  25  80 NW10      29.66S WCI  21
DETROIT LAKES  CLOUDY    32  28  86 NW7       29.68S
MOORHEAD       CLOUDY    39  30  70 N6        29.71R
FERGUS FALLS   CLOUDY    36  27  69 N7        29.70R
ELBOW LAKE     CLOUDY    35  27  73 W9        29.71R
6HR MIN TEMP:  29; 6HR MAX TEMP:  35;

MORRIS MN      PTSUNNY   36  27  69 NW9       29.72R
STAPLES        CLOUDY    28  25  86 NW10      29.66R WCI  19
WHEATON        CLOUDY    37  27  65 NW5       29.75R
$$
  *****  WEATHER ELSEWHERE ACROSS MINNESOTA  *****

CITY           SKY/WX    TMP DP  RH WIND       PRES   REMARKS
DULUTH         CLOUDY    29  21  72 NW12      29.57R WCI  19
6HR MIN TEMP:  26; 6HR MAX TEMP:  30;

INTRNTL FALLS  CLOUDY    28  18  66 N10       29.58R WCI  19
6HR MIN TEMP:  26; 6HR MAX TEMP:  29; 6HR PCP: TRACE;

ELY            CLOUDY    27  19  74 NW6G16    29.53R WCI  20
CLOQUET        CLOUDY    28  19  69 W13       29.59R WCI  18
BRAINERD       CLOUDY    30  23  75 NW12      29.65R WCI  20
6HR MIN TEMP:  27; 6HR MAX TEMP:  30;

HIBBING        CLOUDY    26  18  71 W10       29.57R WCI  16
6HR MIN TEMP:  26; 6HR MAX TEMP:  27;

ALEXANDRIA     CLOUDY    33  24  69 NW9       29.69R
6HR MIN TEMP:  29; 6HR MAX TEMP:  33;

SAINT CLOUD    CLOUDY    32  24  72 NW14      29.67R WCI  22
6HR MIN TEMP:  30; 6HR MAX TEMP:  32;

MINNEAPOLIS    CLOUDY    34  24  67 NW13      29.69R WCI  25
6HR MIN TEMP:  34; 6HR MAX TEMP:  36;

$$

  *****  WEATHER ACROSS SOUTH DAKOTA  *****

CITY           SKY/WX    TMP DP  RH WIND       PRES   REMARKS
SIOUX FALLS    FAIR      50  32  50 N12       29.70R
6HR MIN TEMP:  40; 6HR MAX TEMP:  52;

BROOKINGS      FAIR      43  28  55 N14       29.71R
WATERTOWN      PTSUNNY   41  29  62 N15       29.71R
6HR MIN TEMP:  33; 6HR MAX TEMP:  42;

HURON          FAIR      49  29  46 NE10      29.71R
6HR MIN TEMP:  40; 6HR MAX TEMP:  50;

SISSETON         N/A     41  30  65 NE8       29.71R
ABERDEEN       FAIR      50  27  40 N15       29.71R
6HR MIN TEMP:  37; 6HR MAX TEMP:  50;

MITCHELL       FAIR      51  31  46 NE6       29.71R
PIERRE         FAIR      50  30  46 E7        29.69R
6HR MIN TEMP:  40; 6HR MAX TEMP:  52;

MOBRIDGE       FAIR      55  24  30 N12       29.67R
RAPID CITY     CLOUDY    45  32  60 E9        29.65R
6HR MIN TEMP:  44; 6HR MAX TEMP:  48;

$$

  *****  SOME WEATHER IN NEARBY STATES *****

CITY           SKY/WX    TMP DP  RH WIND       PRES   REMARKS
GLASGOW MT     PTSUNNY   53  20  27 E12       29.71R
6HR MIN TEMP:  49; 6HR MAX TEMP:  56;

GREAT FALLS MT CLOUDY    42  35  76 N12       29.78R
6HR MIN TEMP:  39; 6HR MAX TEMP:  45; 6HR PCP:  0.01;

CHEYENNE WY    FAIR      48  23  37 NW14G22   29.55R
6HR MIN TEMP:  33; 6HR MAX TEMP:  48; 6HR PCP:  0.12;

SCOTTSBLUFF NE PTSUNNY   44  41  89 SE15      29.55S
6HR MIN TEMP:  43; 6HR MAX TEMP:  50; 6HR PCP:  0.19;

OMAHA NE       PTSUNNY   58  33  39 NW5       29.71R
6HR MIN TEMP:  48; 6HR MAX TEMP:  59;

DES MOINES IA  PTSUNNY   56  35  45 NW7       29.73R
6HR MIN TEMP:  45; 6HR MAX TEMP:  58;

DAVENPORT IA   MOCLDY    45  37  73 W9        29.76R
6HR MIN TEMP:  41; 6HR MAX TEMP:  46;

CHICAGO IL     CLOUDY    46  36  68 SW16G25   29.74R
6HR MIN TEMP:  45; 6HR MAX TEMP:  46;

EAU CLAIRE WI  CLOUDY    34  26  72 W9        29.65R
6HR MIN TEMP:  33; 6HR MAX TEMP:  34;

LA CROSSE WI   CLOUDY    40  30  67 W13       29.69R
6HR MIN TEMP:  40; 6HR MAX TEMP:  43; 6HR PCP:  0.01;

$$

  *****  SOME NATIONAL WEATHER *****

CITY           SKY/WX    TMP DP  RH WIND       PRES   REMARKS
LA GUARDIA NY  CLOUDY    63  60  90 SE8       29.88S FOG



USA.gov is the U.S. government's official web portal to all federal, state and local government web resources and services.